This demonstration page uses our WeatherBlox Daily Observations layout. Learn more.

Left ArrowRight Arrow

Hourly Observations for January 9, 2016

Temp ( °F °C ) Dew Point ( °F °C ) Humidity (%) Winds ( mph kmh ) Pressure ( in mb ) Visibility ( mi km ) Precip ( " mm )
12:35 am 00:35 Cloudy with Mist and Fog 24 -4.4 20 -6.7 84 84 NNW 10 17 30.15 1021 4 6 0.00 0.03
12:53 am 00:53 Cloudy with Mist and Fog 24 -4.4 20 -6.7 84 84 N 14 22 30.09 1019 6 10 0.00 0.03
1:03 am 01:03 Cloudy 23 -5 18 -8 80 80 N 16 26 30.18 1022 7 11 0.00 0.00
1:53 am 01:53 Cloudy with Light Snow 22 -5.6 17 -8.3 82 82 N 15 24 30.09 1019 5 8 0.00 0.03
2:53 am 02:53 Cloudy with Light Snow 22 -5.6 18 -7.8 85 85 N 14 22 30.09 1019 5 8 0.00 0.03
3:11 am 03:11 Cloudy with Light Snow 22 -5.6 18 -7.8 85 85 N 18 30 30.18 1022 4 6 0.00 0.03
3:40 am 03:40 Windy with Snow Likely 21 -6 18 -8 86 86 N 22 35 30.18 1022 5 8 0.00 0.00
3:53 am 03:53 Cloudy with Haze 22 -5.6 17 -8.3 82 82 N 15 24 30.09 1019 6 10 0.00 0.03
4:40 am 04:40 Cloudy with Haze 19 -7 12 -11 73 73 N 25 41 30.18 1022 6 10 0.00 0.00
4:53 am 04:53 Cloudy 19 -7.2 12 -11.1 74 74 N 22 35 30.10 1019 9 14 0.00 0.03
5:49 am 05:49 Cloudy 16 -9 10 -12 79 79 N 15 24 30.27 1025 8 13 0.00 0.00
5:53 am 05:53 Mostly Cloudy 16 -8.9 10 -12.2 77 77 N 14 22 30.18 1022 8 13 0.00 0.00
6:23 am 06:23 Cloudy 16 -8.9 9 -12.8 74 74 N 20 31 30.27 1025 10 16 0.00 0.00
6:32 am 06:32 Cloudy 16 -9 9 -13 73 73 N 17 28 30.27 1025 10 16 0.00 0.00
6:53 am 06:53 Cloudy 15 -9.4 9 -12.8 77 77 N 18 30 30.21 1023 10 16 0.00 0.00
7:53 am 07:53 Cloudy 14 -10 7 -13.9 73 73 N 17 28 30.22 1023 10 16 0.00 0.00
8:53 am 08:53 Cloudy 14 -10 7 -13.9 73 73 N 21 33 30.23 1024 10 16 0.00 0.00
9:15 am 09:15 Cloudy 13 -10.6 6 -14.4 74 74 NNW 20 31 30.33 1027 9 14 0.00 0.00
9:53 am 09:53 Windy with Snow Likely 13 -10.6 6 -14.4 74 74 NNW 20 31 30.25 1025 7 11 0.00 0.03
10:35 am 10:35 Cloudy with Light Snow 13 -10.6 6 -14.4 74 74 N 18 30 30.36 1028 4 6 0.00 0.03
10:53 am 10:53 Windy with Snow Likely 13 -10.6 6 -14.4 74 74 N 22 35 30.26 1025 4 6 0.00 0.03
11:18 am 11:18 Cloudy with Light Snow 12 -11 7 -14 79 79 N 17 28 30.36 1028 3 4 0.00 0.00
11:44 am 11:44 Windy with Snow Likely 12 -11 7 -14 79 79 N 21 33 30.33 1027 3 5 0.00 0.00
11:53 am 11:53 Cloudy with Light Snow 14 -10 7 -13.9 73 73 N 17 28 30.25 1024 4 6 0.00 0.03
12:18 pm 12:18 Windy with Snow Likely 14 -10 7 -14 73 73 N 21 33 30.30 1026 3 4 0.00 0.00
12:31 pm 12:31 Windy with Snow Likely 14 -10 7 -13.9 73 73 NNW 22 35 30.30 1026 3 5 0.00 0.03
12:53 pm 12:53 Cloudy 14 -10 6 -14.4 71 71 N 20 31 30.24 1024 7 11 0.00 0.03
1:53 pm 13:53 Cloudy 15 -9.4 7 -13.9 70 70 N 20 31 30.24 1024 10 16 0.00 0.03
2:53 pm 14:53 Cloudy 14 -10 6 -14.4 71 71 N 18 30 30.25 1024 10 16 0.00 0.00
3:53 pm 15:53 Cloudy 13 -10.6 5 -15 70 70 N 18 30 30.26 1025 10 16 0.00 0.00
4:53 pm 16:53 Cloudy 13 -10.6 5 -15 70 70 N 16 26 30.27 1025 10 16 0.00 0.00
5:53 pm 17:53 Cloudy 13 -10.6 5 -15 70 70 N 12 19 30.29 1026 10 16 0.00 0.00
6:53 pm 18:53 Cloudy 10 -12.2 3 -16.1 73 73 NNE 12 19 30.31 1026 10 16 0.00 0.00
7:18 pm 19:18 Partly Cloudy 9 -13 1 -17 72 72 NNE 12 19 30.39 1029 10 16 0.00 0.00
7:53 pm 19:53 Clear 7 -13.9 -1 -18.3 70 70 N 10 17 30.33 1027 10 16 0.00 0.00
8:53 pm 20:53 Clear 4 -15.6 -3 -19.4 73 73 N 8 13 30.35 1028 10 16 0.00 0.00
9:53 pm 21:53 Clear 2 -16.7 -5 -20.6 72 72 N 10 17 30.37 1029 10 16 0.00 0.00
10:53 pm 22:53 Clear 0 -17.8 -6 -21.1 76 76 N 8 13 30.38 1029 10 16 0.00 0.00
11:53 pm 23:53 Clear -1 -18.3 -7 -21.7 75 75 N 6 9 30.38 1029 10 16 0.00 0.00

Powered by AerisWeather